Terug naar catalogus

STARLINK-34249

ActiefCommunicatieVLEO
NORAD 65376·PAYLOAD·🇺🇸 United States

Gelanceerd Aug 28, 2025 vanaf Cape Canaveral Space Force Station

Loading…

Volgende Passages (komende 24 uur)

TLE

VersSource: CelesTrak SupGP

Epoch: Sep 14, 2026, 20:49 UTC

1 65376C 25190AB  26257.86784722  .00010847  00000+0  32060-3 0  2570
2 65376  53.1597   5.7412 0001220  81.1098 205.4452 15.34373883    18

Volg STARLINK-34249 in realtime met AllMySat

Download on the App Store